Time,TemperatureF,DewpointF,PressureIn,WindDirection,WindDirectionDegrees,WindSpeedMPH,WindSpeedGustMPH,Humidity,HourlyPrecipIn,Conditions,Clouds,dailyrainin,SolarRadiationWatts/m^2,SoftwareType,DateUTC
2013-01-22 00:00:00,19.9,14.2,29.56,WSW,247,0.0,0.0,78,0.00,OVC,OVC,0.00,0.0,WeatherDisplay:10.37,2013-01-21 23:00:00,
2013-01-22 00:10:00,19.9,14.2,29.56,WSW,238,0.0,0.0,78,0.00,-SN,OVC,0.00,0.0,WeatherDisplay:10.37,2013-01-21 23:10:00,
2013-01-22 00:20:00,19.9,14.2,29.56,SW,225,0.0,0.0,78,0.00,-SN,OVC,0.00,0.0,WeatherDisplay:10.37,2013-01-21 23:20:00,
2013-01-22 00:30:00,19.9,14.2,29.56,SW,228,0.0,0.0,78,0.00,-SN,OVC,0.00,0.0,WeatherDisplay:10.37,2013-01-21 23:30:00,
2013-01-22 00:40:00,19.9,14.2,29.56,West,268,0.0,0.0,78,0.00,-SN,OVC,0.00,0.0,WeatherDisplay:10.37,2013-01-21 23:40:00,
2013-01-22 00:50:00,19.9,13.9,29.56,WSW,251,0.0,0.0,77,0.00,-SN,OVC,0.00,0.0,WeatherDisplay:10.37,2013-01-21 23:50:00,
2013-01-22 01:00:00,19.6,13.5,29.56,NNE,15,0.0,0.0,77,0.00,-SN,OVC,0.00,0.0,WeatherDisplay:10.37,2013-01-22 00:00:00,
2013-01-22 01:10:00,19.6,13.5,29.56,West,270,0.0,0.0,77,0.00,-SN,OVC,0.00,0.0,WeatherDisplay:10.37,2013-01-22 00:10:00,
2013-01-22 01:20:00,19.6,13.5,29.56,WNW,291,0.0,0.0,77,0.00,-SN,OVC,0.00,0.0,WeatherDisplay:10.37,2013-01-22 00:20:00,
2013-01-22 01:30:00,19.6,13.5,29.56,NW,322,0.0,0.0,77,0.00,-SN,OVC,0.00,0.0,WeatherDisplay:10.37,2013-01-22 00:30:00,
2013-01-22 01:40:00,19.8,13.7,29.56,WNW,302,0.0,0.0,77,0.00,-SN,OVC,0.00,0.0,WeatherDisplay:10.37,2013-01-22 00:40:00,
2013-01-22 01:50:00,19.6,13.5,29.56,NW,317,0.0,0.0,77,0.00,-SN,OVC,0.00,0.0,WeatherDisplay:10.37,2013-01-22 00:50:00,
2013-01-22 02:00:00,19.6,13.5,29.56,NNE,22,0.0,0.0,77,0.00,-SN,OVC,0.00,0.0,WeatherDisplay:10.37,2013-01-22 01:00:00,
2013-01-22 02:10:00,19.6,13.5,29.56,WNW,302,0.0,0.0,77,0.00,OVC,OVC,0.00,0.0,WeatherDisplay:10.37,2013-01-22 01:10:00,
2013-01-22 02:20:00,19.6,13.5,29.56,NNE,16,0.0,0.0,77,0.00,OVC,OVC,0.00,0.0,WeatherDisplay:10.37,2013-01-22 01:20:00,
2013-01-22 02:30:00,19.4,13.4,29.56,NNW,346,0.0,0.0,77,0.00,OVC,OVC,0.00,0.0,WeatherDisplay:10.37,2013-01-22 01:30:00,
2013-01-22 02:40:00,19.2,13.2,29.56,NNE,14,0.0,0.0,77,0.00,OVC,OVC,0.00,0.0,WeatherDisplay:10.37,2013-01-22 01:40:00,
2013-01-22 02:50:00,19.4,13.4,29.56,West,265,0.0,0.0,77,0.00,OVC,OVC,0.00,0.0,WeatherDisplay:10.37,2013-01-22 01:50:00,
2013-01-22 03:00:00,19.2,13.2,29.56,WSW,247,0.0,0.0,77,0.00,OVC,OVC,0.00,0.0,WeatherDisplay:10.37,2013-01-22 02:00:00,
2013-01-22 03:10:00,19.0,13.0,29.59,SW,234,0.0,0.0,77,0.00,OVC,OVC,0.00,0.0,WeatherDisplay:10.37,2013-01-22 02:10:00,
2013-01-22 03:20:00,19.0,13.0,29.59,SW,214,0.0,0.0,77,0.00,OVC,OVC,0.00,0.0,WeatherDisplay:10.37,2013-01-22 02:20:00,
2013-01-22 03:30:00,19.0,13.0,29.59,SW,230,0.0,0.0,77,0.00,OVC,OVC,0.00,0.0,WeatherDisplay:10.37,2013-01-22 02:30:00,
2013-01-22 03:40:00,19.0,13.0,29.59,WSW,249,0.0,0.0,77,0.00,OVC,OVC,0.00,0.0,WeatherDisplay:10.37,2013-01-22 02:40:00,
2013-01-22 03:50:00,19.0,13.0,29.59,WSW,237,0.0,0.0,77,0.00,OVC,OVC,0.00,0.0,WeatherDisplay:10.37,2013-01-22 02:50:00,
2013-01-22 04:00:00,19.0,13.0,29.59,WSW,240,0.0,0.0,77,0.00,OVC,OVC,0.00,0.0,WeatherDisplay:10.37,2013-01-22 03:00:00,
2013-01-22 04:10:00,19.0,13.0,29.59,West,280,0.0,0.0,77,0.00,OVC,OVC,0.00,0.0,WeatherDisplay:10.37,2013-01-22 03:10:00,
2013-01-22 04:20:00,19.0,13.0,29.59,West,280,0.0,0.0,77,0.00,OVC,OVC,0.00,0.0,WeatherDisplay:10.37,2013-01-22 03:20:00,
2013-01-22 04:30:00,19.0,13.0,29.59,West,280,0.0,0.0,77,0.00,OVC,OVC,0.00,0.0,WeatherDisplay:10.37,2013-01-22 03:30:00,
2013-01-22 04:40:00,19.0,13.0,29.59,West,280,0.0,0.0,77,0.00,OVC,OVC,0.00,0.0,WeatherDisplay:10.37,2013-01-22 03:40:00,
2013-01-22 04:50:00,18.7,12.7,29.59,WSW,247,0.0,0.0,77,0.00,OVC,OVC,0.00,0.0,WeatherDisplay:10.37,2013-01-22 03:50:00,
2013-01-22 05:00:00,18.7,12.7,29.59,SW,231,0.0,0.0,77,0.00,OVC,OVC,0.00,0.0,WeatherDisplay:10.37,2013-01-22 04:00:00,
2013-01-22 05:10:00,18.5,12.2,29.59,WSW,251,0.0,0.0,76,0.00,OVC,OVC,0.00,0.0,WeatherDisplay:10.37,2013-01-22 04:10:00,
2013-01-22 05:20:00,18.3,12.0,29.59,SW,235,0.0,0.0,76,0.00,OVC,OVC,0.00,0.0,WeatherDisplay:10.37,2013-01-22 04:20:00,
2013-01-22 05:30:00,18.3,12.0,29.59,NNE,14,0.0,0.0,76,0.00,OVC,OVC,0.00,0.0,WeatherDisplay:10.37,2013-01-22 04:30:00,
2013-01-22 05:40:00,18.1,11.8,29.59,NE,49,0.0,0.0,76,0.00,OVC,OVC,0.00,0.0,WeatherDisplay:10.37,2013-01-22 04:40:00,
2013-01-22 05:50:00,18.1,11.8,29.59,NE,37,0.0,0.0,76,0.00,OVC,OVC,0.00,0.0,WeatherDisplay:10.37,2013-01-22 04:50:00,
2013-01-22 06:00:00,18.0,11.7,29.59,NE,35,0.0,0.0,76,0.00,OVC,OVC,0.00,0.0,WeatherDisplay:10.37,2013-01-22 05:00:00,
2013-01-22 06:10:00,17.8,11.2,29.59,WSW,244,0.0,0.0,75,0.00,OVC,OVC,0.00,0.0,WeatherDisplay:10.37,2013-01-22 05:10:00,
2013-01-22 06:20:00,17.6,11.0,29.62,West,268,0.0,0.0,75,0.00,OVC,OVC,0.00,0.0,WeatherDisplay:10.37,2013-01-22 05:20:00,
2013-01-22 06:30:00,17.6,11.0,29.62,West,276,0.0,0.0,75,0.00,OVC,OVC,0.00,0.0,WeatherDisplay:10.37,2013-01-22 05:30:00,
2013-01-22 06:40:00,17.6,11.0,29.62,WSW,238,0.0,0.0,75,0.00,OVC,OVC,0.00,0.0,WeatherDisplay:10.37,2013-01-22 05:40:00,
2013-01-22 06:50:00,17.2,10.7,29.62,SW,225,0.0,0.0,75,0.00,OVC,OVC,0.00,0.0,WeatherDisplay:10.37,2013-01-22 05:50:00,
2013-01-22 07:00:00,17.2,10.7,29.62,SW,215,0.0,0.0,75,0.00,OVC,OVC,0.00,0.0,WeatherDisplay:10.37,2013-01-22 06:00:00,
2013-01-22 07:10:00,17.1,10.5,29.62,NNW,331,0.0,0.0,75,0.00,OVC,OVC,0.00,0.0,WeatherDisplay:10.37,2013-01-22 06:10:00,
2013-01-22 07:20:00,17.1,10.5,29.62,North,355,0.0,0.0,75,0.00,OVC,OVC,0.00,0.0,WeatherDisplay:10.37,2013-01-22 06:20:00,
2013-01-22 07:30:00,17.1,10.5,29.62,North,5,0.0,0.0,75,0.00,OVC,OVC,0.00,0.0,WeatherDisplay:10.37,2013-01-22 06:30:00,
2013-01-22 07:40:00,16.9,10.3,29.62,North,9,0.0,0.0,75,0.00,OVC,OVC,0.00,0.0,WeatherDisplay:10.37,2013-01-22 06:40:00,
2013-01-22 07:50:00,17.1,10.5,29.62,WNW,302,0.0,0.0,75,0.00,OVC,OVC,0.00,0.0,WeatherDisplay:10.37,2013-01-22 06:50:00,
2013-01-22 08:00:00,17.1,10.5,29.62,NNW,335,0.0,0.0,75,0.00,OVC,OVC,0.00,0.0,WeatherDisplay:10.37,2013-01-22 07:00:00,
2013-01-22 08:10:00,16.7,10.1,29.62,NE,41,0.0,0.0,75,0.00,OVC,OVC,0.00,0.0,WeatherDisplay:10.37,2013-01-22 07:10:00,
2013-01-22 08:20:00,16.7,10.1,29.65,North,5,0.0,0.0,75,0.00,OVC,OVC,0.00,0.0,WeatherDisplay:10.37,2013-01-22 07:20:00,
2013-01-22 08:30:00,16.7,10.1,29.65,North,9,0.0,0.0,75,0.00,OVC,OVC,0.00,0.0,WeatherDisplay:10.37,2013-01-22 07:30:00,
2013-01-22 08:40:00,16.7,10.1,29.65,North,352,0.0,0.0,75,0.00,OVC,OVC,0.00,0.0,WeatherDisplay:10.37,2013-01-22 07:40:00,
2013-01-22 08:50:00,16.9,10.3,29.65,NNE,30,0.0,0.0,75,0.00,OVC,OVC,0.00,0.0,WeatherDisplay:10.37,2013-01-22 07:50:00,
2013-01-22 09:00:00,16.9,10.3,29.65,NE,34,0.0,0.0,75,0.00,OVC,OVC,0.00,0.0,WeatherDisplay:10.37,2013-01-22 08:00:00,
2013-01-22 09:10:00,17.1,10.5,29.65,WNW,283,0.0,0.0,75,0.00,OVC,OVC,0.00,0.0,WeatherDisplay:10.37,2013-01-22 08:10:00,
2013-01-22 09:20:00,16.7,10.1,29.65,SW,234,0.0,0.0,75,0.00,OVC,OVC,0.00,0.0,WeatherDisplay:10.37,2013-01-22 08:20:00,
2013-01-22 09:30:00,16.5,10.0,29.65,SW,230,0.0,0.0,75,0.00,OVC,OVC,0.00,0.0,WeatherDisplay:10.37,2013-01-22 08:30:00,
2013-01-22 09:40:00,17.1,10.5,29.65,SW,215,0.0,0.0,75,0.00,OVC,OVC,0.00,0.0,WeatherDisplay:10.37,2013-01-22 08:40:00,
2013-01-22 09:50:00,16.7,9.8,29.65,NNE,25,0.0,0.0,74,0.00,OVC,OVC,0.00,0.0,WeatherDisplay:10.37,2013-01-22 08:50:00,
2013-01-22 10:00:00,16.9,10.0,29.65,NNE,29,0.0,0.0,74,0.00,OVC,OVC,0.00,0.0,WeatherDisplay:10.37,2013-01-22 09:00:00,
2013-01-22 10:10:00,17.1,10.2,29.65,West,265,0.0,0.0,74,0.00,OVC,OVC,0.00,0.0,WeatherDisplay:10.37,2013-01-22 09:10:00,
2013-01-22 10:20:00,17.1,10.2,29.68,North,354,0.0,0.0,74,0.00,OVC,OVC,0.00,0.0,WeatherDisplay:10.37,2013-01-22 09:20:00,
2013-01-22 10:30:00,17.4,10.5,29.68,NNE,24,0.0,0.0,74,0.00,OVC,OVC,0.00,0.0,WeatherDisplay:10.37,2013-01-22 09:30:00,
2013-01-22 10:40:00,17.6,10.7,29.65,NNE,27,0.0,0.0,74,0.00,OVC,OVC,0.00,0.0,WeatherDisplay:10.37,2013-01-22 09:40:00,
2013-01-22 10:50:00,18.1,11.2,29.65,NNE,15,0.0,0.0,74,0.00,OVC,OVC,0.00,0.0,WeatherDisplay:10.37,2013-01-22 09:50:00,
2013-01-22 11:00:00,18.0,10.8,29.65,WNW,287,0.0,0.0,73,0.00,OVC,OVC,0.00,0.0,WeatherDisplay:10.37,2013-01-22 10:00:00,
2013-01-22 11:10:00,18.0,10.8,29.68,NNE,26,0.0,0.0,73,0.00,OVC,OVC,0.00,0.0,WeatherDisplay:10.37,2013-01-22 10:10:00,
2013-01-22 11:20:00,18.9,11.6,29.68,SW,225,0.0,0.0,73,0.00,OVC,OVC,0.00,0.0,WeatherDisplay:10.37,2013-01-22 10:20:00,
2013-01-22 11:30:00,18.9,11.6,29.68,WSW,237,0.0,0.0,73,0.00,OVC,OVC,0.00,0.0,WeatherDisplay:10.37,2013-01-22 10:30:00,
2013-01-22 11:40:00,19.0,11.5,29.68,East,80,0.0,0.0,72,0.00,OVC,OVC,0.00,0.0,WeatherDisplay:10.37,2013-01-22 10:40:00,
2013-01-22 11:50:00,19.0,11.5,29.68,NNE,32,0.0,0.0,72,0.00,OVC,OVC,0.00,0.0,WeatherDisplay:10.37,2013-01-22 10:50:00,
2013-01-22 12:00:00,19.0,11.5,29.68,NE,47,0.0,0.0,72,0.00,OVC,OVC,0.00,0.0,WeatherDisplay:10.37,2013-01-22 11:00:00,
2013-01-22 12:10:00,19.0,11.5,29.68,NNE,24,0.0,0.0,72,0.00,OVC,OVC,0.00,0.0,WeatherDisplay:10.37,2013-01-22 11:10:00,
2013-01-22 12:20:00,19.0,11.5,29.68,NNW,339,0.0,0.0,72,0.00,OVC,OVC,0.00,0.0,WeatherDisplay:10.37,2013-01-22 11:20:00,
2013-01-22 12:30:00,19.0,11.5,29.68,NNW,336,0.0,0.0,72,0.00,OVC,OVC,0.00,0.0,WeatherDisplay:10.37,2013-01-22 11:30:00,
2013-01-22 12:40:00,19.6,11.7,29.68,NNE,15,0.0,0.0,71,0.00,OVC,OVC,0.00,0.0,WeatherDisplay:10.37,2013-01-22 11:40:00,
2013-01-22 12:50:00,20.1,12.5,29.68,West,265,0.0,0.0,72,0.00,OVC,OVC,0.00,0.0,WeatherDisplay:10.37,2013-01-22 11:50:00,
2013-01-22 13:00:00,20.8,12.9,29.68,WSW,241,0.0,0.0,71,0.00,OVC,OVC,0.00,0.0,WeatherDisplay:10.37,2013-01-22 12:00:00,
2013-01-22 13:10:00,20.3,12.4,29.68,SW,229,0.0,0.0,71,0.00,OVC,OVC,0.00,0.0,WeatherDisplay:10.37,2013-01-22 12:10:00,
2013-01-22 13:20:00,21.0,13.1,29.68,SW,223,0.0,0.0,71,0.00,OVC,OVC,0.00,0.0,WeatherDisplay:10.37,2013-01-22 12:20:00,
2013-01-22 13:30:00,21.4,13.4,29.68,SSW,193,0.0,0.0,71,0.00,OVC,OVC,0.00,0.0,WeatherDisplay:10.37,2013-01-22 12:30:00,
2013-01-22 13:40:00,21.4,13.1,29.68,SE,137,0.0,0.0,70,0.00,OVC,OVC,0.00,0.0,WeatherDisplay:10.37,2013-01-22 12:40:00,
2013-01-22 13:50:00,21.0,12.8,29.68,NNE,12,0.0,0.0,70,0.00,OVC,OVC,0.00,0.0,WeatherDisplay:10.37,2013-01-22 12:50:00,
2013-01-22 14:00:00,20.8,12.6,29.68,NNE,15,0.0,0.0,70,0.00,OVC,OVC,0.00,0.0,WeatherDisplay:10.37,2013-01-22 13:00:00,
2013-01-22 14:10:00,21.2,12.9,29.65,NE,34,0.0,0.0,70,0.00,OVC,OVC,0.00,0.0,WeatherDisplay:10.37,2013-01-22 13:10:00,
2013-01-22 14:20:00,21.2,12.9,29.65,NE,36,0.0,0.0,70,0.00,OVC,OVC,0.00,0.0,WeatherDisplay:10.37,2013-01-22 13:20:00,
2013-01-22 14:30:00,20.8,12.6,29.65,NNE,33,0.0,0.0,70,0.00,OVC,OVC,0.00,0.0,WeatherDisplay:10.37,2013-01-22 13:30:00,
2013-01-22 14:40:00,21.9,14.0,29.68,SW,225,0.0,0.0,71,0.00,OVC,OVC,0.00,0.0,WeatherDisplay:10.37,2013-01-22 13:40:00,
2013-01-22 14:50:00,22.1,13.8,29.68,SSW,206,0.0,0.0,70,0.00,OVC,OVC,0.00,0.0,WeatherDisplay:10.37,2013-01-22 13:50:00,
2013-01-22 15:00:00,21.9,13.3,29.68,South,179,0.0,0.0,69,0.00,OVC,OVC,0.00,0.0,WeatherDisplay:10.37,2013-01-22 14:00:00,
2013-01-22 15:10:00,22.3,13.6,29.68,SSW,203,0.0,0.0,69,0.00,BKN,OVC,0.00,0.0,WeatherDisplay:10.37,2013-01-22 14:10:00,
2013-01-22 15:20:00,20.8,12.3,29.68,ESE,117,0.0,0.0,69,0.00,BKN,OVC,0.00,0.0,WeatherDisplay:10.37,2013-01-22 14:20:00,
2013-01-22 15:30:00,20.5,12.2,29.68,ESE,107,0.0,0.0,70,0.00,BKN,OVC,0.00,0.0,WeatherDisplay:10.37,2013-01-22 14:30:00,
2013-01-22 15:40:00,20.1,11.9,29.68,South,185,0.0,0.0,70,0.00,BKN,OVC,0.00,0.0,WeatherDisplay:10.37,2013-01-22 14:40:00,
2013-01-22 15:50:00,18.7,10.5,29.68,WSW,246,0.0,0.0,70,0.00,BKN,OVC,0.00,0.0,WeatherDisplay:10.37,2013-01-22 14:50:00,
2013-01-22 16:00:00,18.5,10.7,29.68,SW,231,0.0,0.0,71,0.00,BKN,OVC,0.00,0.0,WeatherDisplay:10.37,2013-01-22 15:00:00,
2013-01-22 16:10:00,18.5,10.7,29.68,SSW,212,0.0,0.0,71,0.00,OVC,OVC,0.00,0.0,WeatherDisplay:10.37,2013-01-22 15:10:00,
2013-01-22 16:20:00,18.7,11.1,29.68,SW,221,0.0,0.0,72,0.00,OVC,OVC,0.00,0.0,WeatherDisplay:10.37,2013-01-22 15:20:00,
2013-01-22 16:30:00,18.7,11.5,29.68,SW,220,0.0,0.0,73,0.00,OVC,OVC,0.00,0.0,WeatherDisplay:10.37,2013-01-22 15:30:00,
2013-01-22 16:40:00,18.7,11.5,29.68,SSW,195,0.0,0.0,73,0.00,OVC,OVC,0.00,0.0,WeatherDisplay:10.37,2013-01-22 15:40:00,
2013-01-22 16:50:00,18.7,11.5,29.71,SSW,195,0.0,0.0,73,0.00,OVC,OVC,0.00,0.0,WeatherDisplay:10.37,2013-01-22 15:50:00,
2013-01-22 17:00:00,18.7,11.5,29.71,WNW,288,0.0,0.0,73,0.00,OVC,OVC,0.00,0.0,WeatherDisplay:10.37,2013-01-22 16:00:00,
2013-01-22 17:10:00,18.9,11.6,29.68,NNW,340,0.0,0.0,73,0.00,OVC,OVC,0.00,0.0,WeatherDisplay:10.37,2013-01-22 16:10:00,
2013-01-22 17:20:00,19.0,12.1,29.68,North,357,0.0,0.0,74,0.00,OVC,OVC,0.00,0.0,WeatherDisplay:10.37,2013-01-22 16:20:00,
2013-01-22 17:30:00,19.0,12.1,29.68,NW,324,0.0,0.0,74,0.00,OVC,OVC,0.00,0.0,WeatherDisplay:10.37,2013-01-22 16:30:00,
2013-01-22 17:40:00,19.0,12.1,29.68,North,357,0.0,0.0,74,0.00,OVC,OVC,0.00,0.0,WeatherDisplay:10.37,2013-01-22 16:40:00,
2013-01-22 17:50:00,19.0,12.1,29.71,North,356,0.0,0.0,74,0.00,OVC,OVC,0.00,0.0,WeatherDisplay:10.37,2013-01-22 16:50:00,
2013-01-22 18:00:00,19.0,12.1,29.71,NE,46,0.0,0.0,74,0.00,OVC,OVC,0.00,0.0,WeatherDisplay:10.37,2013-01-22 17:00:00,
2013-01-22 18:10:00,19.0,12.1,29.71,SSW,208,0.0,0.0,74,0.00,OVC,OVC,0.00,0.0,WeatherDisplay:10.37,2013-01-22 17:10:00,
2013-01-22 18:20:00,19.0,12.4,29.71,South,174,0.0,0.0,75,0.00,OVC,OVC,0.00,0.0,WeatherDisplay:10.37,2013-01-22 17:20:00,
2013-01-22 18:30:00,19.2,12.6,29.71,SSW,213,0.0,0.0,75,0.00,OVC,OVC,0.00,0.0,WeatherDisplay:10.37,2013-01-22 17:30:00,
2013-01-22 18:40:00,19.2,12.6,29.71,SSW,205,0.0,0.0,75,0.00,OVC,OVC,0.00,0.0,WeatherDisplay:10.37,2013-01-22 17:40:00,
2013-01-22 18:50:00,19.4,12.8,29.71,SSW,205,0.0,0.0,75,0.00,OVC,OVC,0.00,0.0,WeatherDisplay:10.37,2013-01-22 17:50:00,
2013-01-22 19:00:00,19.2,12.6,29.71,North,356,0.0,0.0,75,0.00,OVC,OVC,0.00,0.0,WeatherDisplay:10.37,2013-01-22 18:00:00,
2013-01-22 19:10:00,19.6,12.9,29.71,North,8,0.0,0.0,75,0.00,OVC,OVC,0.00,0.0,WeatherDisplay:10.37,2013-01-22 18:10:00,
2013-01-22 19:20:00,19.6,12.9,29.71,East,98,0.0,0.0,75,0.00,OVC,OVC,0.00,0.0,WeatherDisplay:10.37,2013-01-22 18:20:00,
2013-01-22 19:30:00,19.6,12.9,29.71,SE,132,0.0,0.0,75,0.00,OVC,OVC,0.00,0.0,WeatherDisplay:10.37,2013-01-22 18:30:00,
2013-01-22 19:40:00,19.4,12.5,29.71,NE,54,0.0,0.0,74,0.00,OVC,OVC,0.00,0.0,WeatherDisplay:10.37,2013-01-22 18:40:00,
2013-01-22 19:50:00,19.4,12.5,29.71,NE,42,0.0,0.0,74,0.00,OVC,OVC,0.00,0.0,WeatherDisplay:10.37,2013-01-22 18:50:00,
2013-01-22 20:00:00,19.2,12.3,29.71,East,82,0.0,0.0,74,0.00,OVC,OVC,0.00,0.0,WeatherDisplay:10.37,2013-01-22 19:00:00,
2013-01-22 20:10:00,19.2,12.3,29.71,NNE,15,0.0,0.0,74,0.00,OVC,OVC,0.00,0.0,WeatherDisplay:10.37,2013-01-22 19:10:00,
2013-01-22 20:20:00,19.0,12.1,29.71,NNE,24,0.0,0.0,74,0.00,OVC,OVC,0.00,0.0,WeatherDisplay:10.37,2013-01-22 19:20:00,
2013-01-22 20:30:00,19.0,12.1,29.71,ENE,65,0.0,0.0,74,0.00,OVC,OVC,0.00,0.0,WeatherDisplay:10.37,2013-01-22 19:30:00,
2013-01-22 20:40:00,19.0,12.1,29.71,East,81,0.0,0.0,74,0.00,OVC,OVC,0.00,0.0,WeatherDisplay:10.37,2013-01-22 19:40:00,
2013-01-22 20:50:00,18.9,11.9,29.71,NE,48,0.0,0.0,74,0.00,OVC,OVC,0.00,0.0,WeatherDisplay:10.37,2013-01-22 19:50:00,
2013-01-22 21:00:00,18.9,11.9,29.71,North,7,0.0,0.0,74,0.00,OVC,OVC,0.00,0.0,WeatherDisplay:10.37,2013-01-22 20:00:00,
2013-01-22 21:10:00,18.7,11.8,29.71,NNW,335,0.0,0.0,74,0.00,OVC,OVC,0.00,0.0,WeatherDisplay:10.37,2013-01-22 20:10:00,
2013-01-22 21:20:00,18.5,11.6,29.71,East,99,0.0,0.0,74,0.00,OVC,OVC,0.00,0.0,WeatherDisplay:10.37,2013-01-22 20:20:00,
2013-01-22 21:30:00,18.5,11.6,29.71,East,97,0.0,0.0,74,0.00,OVC,OVC,0.00,0.0,WeatherDisplay:10.37,2013-01-22 20:30:00,
2013-01-22 21:40:00,18.5,11.6,29.71,NNE,28,0.0,0.0,74,0.00,OVC,OVC,0.00,0.0,WeatherDisplay:10.37,2013-01-22 20:40:00,
2013-01-22 21:50:00,18.3,11.4,29.71,East,98,0.0,0.0,74,0.00,OVC,OVC,0.00,0.0,WeatherDisplay:10.37,2013-01-22 20:50:00,
2013-01-22 22:00:00,18.3,11.4,29.71,SE,143,0.0,0.0,74,0.00,OVC,OVC,0.00,0.0,WeatherDisplay:10.37,2013-01-22 21:00:00,
2013-01-22 22:10:00,18.3,11.4,29.71,ENE,71,0.0,0.0,74,0.00,OVC,OVC,0.00,0.0,WeatherDisplay:10.37,2013-01-22 21:10:00,
2013-01-22 22:20:00,18.3,11.4,29.71,NE,39,0.0,0.0,74,0.00,OVC,OVC,0.00,0.0,WeatherDisplay:10.37,2013-01-22 21:20:00,
2013-01-22 22:30:00,18.3,11.4,29.71,NNE,32,0.0,0.0,74,0.00,OVC,OVC,0.00,0.0,WeatherDisplay:10.37,2013-01-22 21:30:00,
2013-01-22 22:40:00,18.1,11.2,29.71,NE,49,0.0,0.0,74,0.00,OVC,OVC,0.00,0.0,WeatherDisplay:10.37,2013-01-22 21:40:00,
2013-01-22 22:50:00,18.1,11.2,29.74,SE,125,0.0,0.0,74,0.00,OVC,OVC,0.00,0.0,WeatherDisplay:10.37,2013-01-22 21:50:00,
2013-01-22 23:00:00,18.0,11.1,29.74,SE,129,0.0,0.0,74,0.00,OVC,OVC,0.00,0.0,WeatherDisplay:10.37,2013-01-22 22:00:00,
2013-01-22 23:10:00,18.0,11.1,29.74,ESE,106,0.0,0.0,74,0.00,OVC,OVC,0.00,0.0,WeatherDisplay:10.37,2013-01-22 22:10:00,
2013-01-22 23:20:00,18.0,11.1,29.74,East,91,0.0,0.0,74,0.00,OVC,OVC,0.00,0.0,WeatherDisplay:10.37,2013-01-22 22:20:00,
2013-01-22 23:30:00,18.0,11.1,29.74,ESE,121,0.0,0.0,74,0.00,OVC,OVC,0.00,0.0,WeatherDisplay:10.37,2013-01-22 22:30:00,
2013-01-22 23:40:00,18.0,11.1,29.74,ESE,115,0.0,0.0,74,0.00,OVC,OVC,0.00,0.0,WeatherDisplay:10.37,2013-01-22 22:40:00,
2013-01-22 23:50:00,18.0,11.1,29.74,East,99,0.0,0.0,74,0.00,OVC,OVC,0.00,0.0,WeatherDisplay:10.37,2013-01-22 22:50:00,